Temperature
18 18 18 18 18 18 18 18 18 18 18 18 18 18 18 18 18 18 18 18 18 18 18 18 17 17 17 17 17 17 17 17 17 17 16 16 16 16 16 16 16 16 16
18 18 18 18 18 18 18 18 18 18 18 18 18 18 18 18 18 18 18 18 18 18 17 17 17 17 17 17 17 17 17 17 17 17 17 16 16 16 16 16 16 16 16
18 18 18 18 18 18 18 18 18 18 18 18 18 18 18 18 18 18 18 18 18 17 17 17 17 17 17 17 17 17 17 17 17 17 17 16 16 16 16 16 16 16 16
18 18 18 18 18 18 18 18 18 18 18 18 18 18 18 18 18 18 18 18 18 17 17 17 17 17 17 17 17 17 17 17 17 16 16 16 16 16 16 16 16 16 16
18 18 18 18 18 18 18 18 18 18 18 18 18 18 18 18 18 17 17 17 17 17 17 17 17 17 17 17 17 17 17 17 17 16 16 16 16 16 16 16 16 16 16
18 18 18 18 18 18 18 18 18 18 18 18 18 18 17 18 17 17 17 17 17 17 17 17 17 17 17 17 17 17 17 16 16 16 16 16 16 16 16 16 16 15 15
18 18 18 18 18 18 18 18 18 18 18 18 18 17 17 17 17 17 17 17 17 17 17 16 16 16 16 16 16 16 16 16 16 16 16 16 16 16 15 15 15 15 15
18 18 18 18 18 18 18 18 18 18 18 18 18 17 17 17 17 17 17 16 16 16 16 16 16 16 16 16 16 16 16 16 16 16 16 16 16 15 15 15 15 15 15
18 18 18 18 18 18 18 18 18 18 18 17 17 17 17 17 16 16 16 16 16 16 16 16 16 16 16 16 16 16 16 16 16 15 15 15 15 15 15 15 15 15 15
18 18 18 18 18 18 18 18 18 18 18 18 17 17 17 17 17 16 16 16 16 16 16 15 15 15 15 15 15 15 15 15 15 15 15 15 15 15 15 15 15 14 14
18 18 18 18 18 18 18 18 18 18 18 18 17 17 17 17 17 16 15 15 15 15 15 15 15 15 15 15 15 15 15 15 15 15 15 15 15 14 14 14 14 14 14
18 18 18 18 18 18 18 18 18 18 18 17 17 17 17 17 17 17 16 15 15 15 14 15 15 15 15 14 14 14 14 14 14 14 14 14 14 14 14 14 14 13 13
18 18 18 18 18 18 18 17 17 17 17 17 17 17 17 17 17 17 16 15 15 14 14 14 14 14 14 14 14 14 14 14 14 14 14 14 14 14 14 13 13 13 13
18 18 18 18 18 17 17 17 17 17 17 17 17 17 17 17 17 17 16 16 15 14 14 14 14 14 14 13 13 13 13 13 13 13 13 13 13 13 13 13 13 13 13
18 18 18 18 18 17 17 17 17 17 17 17 17 17 17 17 17 16 16 16 16 14 13 13 13 13 13 13 13 13 13 13 13 13 13 13 13 13 13 13 12 12 12
18 18 18 18 17 17 17 17 17 17 17 17 17 17 17 16 16 16 16 16 15 15 14 13 13 13 13 13 13 13 13 13 13 13 13 13 13 13 12 12 12 12 12
18 18 18 17 17 17 17 17 17 17 17 17 17 16 16 16 16 16 16 15 15 15 15 13 13 13 13 13 13 13 12 12 12 12 12 12 12 12 12 12 12 12 11
18 18 18 17 17 17 17 17 17 17 17 16 16 16 16 16 16 16 15 15 15 15 15 14 13 13 12 12 12 12 12 12 12 12 12 12 12 12 12 11 11 11 11
18 18 18 17 17 17 17 17 17 16 16 16 16 16 16 16 16 15 15 15 15 14 14 14 13 13 12 12 12 12 12 12 12 12 12 11 11 11 11 11 11 11 11
18 18 18 17 17 17 17 17 16 16 16 16 16 16 16 15 15 15 15 15 15 14 14 13 13 13 12 12 12 12 12 12 11 11 11 11 11 11 11 11 10 10 10
18 18 18 17 17 17 17 17 16 16 16 16 16 15 15 15 15 15 15 15 14 14 14 13 13 12 12 12 12 12 11 11 11 11 11 11 11 11 11 10 10 10 10
18 18 17 17 17 17 17 16 16 16 16 16 16 15 15 15 15 15 14 14 14 14 14 13 13 13 12 12 12 12 11 11 11 11 11 11 11 11 10 10 10 10 10
18 18 17 17 17 17 17 16 16 16 16 15 15 15 15 15 15 14 14 14 14 13 13 13 13 13 13 12 12 12 11 11 11 11 10 10 10 10 10 10 10 10 9
18 18 17 17 17 17 16 16 16 16 15 15 15 15 14 14 14 14 14 14 13 13 13 13 13 12 12 12 12 12 11 11 11 10 10 10 10 10 10 10 10 10 9
17 17 17 17 17 16 16 16 16 15 15 15 15 14 14 14 14 13 13 13 13 13 13 12 12 12 12 12 12 11 11 11 10 10 10 10 10 10 10 10 10 9 9
17 17 17 17 16 16 16 16 15 15 15 15 15 14 14 14 13 13 13 13 13 13 12 12 12 12 12 11 11 11 11 11 11 10 10 10 10 10 10 10 10 9 9
Wind_Speed
3 3 2 3 3 3 3 2 2 2 2 2 1 2 3 5 6 7 7 11 12 13 14 14 14 15 14 15 15 14 14 13 13 13 13 13 13 13 12 13 12 12 12
3 2 2 2 2 3 3 2 2 2 1 1 1 2 2 4 6 6 6 8 10 11 12 13 14 14 13 14 14 13 13 13 13 13 13 13 14 14 14 13 13 13 13
4 3 2 1 1 2 2 2 2 3 2 2 1 1 2 3 4 5 6 6 7 9 9 9 10 11 12 12 13 13 13 13 13 13 13 13 14 14 14 14 14 14 14
4 3 2 2 1 2 2 2 2 2 2 1 1 1 1 2 3 4 5 6 6 6 7 8 7 7 8 9 11 12 12 13 13 13 12 11 12 13 13 14 14 14 14
4 4 2 1 2 2 1 1 2 2 2 2 1 1 1 1 2 3 3 4 4 4 4 5 5 5 5 6 7 9 11 12 11 11 11 11 11 11 12 13 13 13 13
4 4 2 1 2 2 1 2 2 2 2 2 2 2 2 1 1 2 3 3 3 4 3 3 2 3 3 4 4 5 6 7 9 10 11 11 11 11 11 11 11 11 12
3 3 2 2 2 2 1 2 3 2 1 2 3 2 3 3 2 1 2 3 3 4 4 3 3 1 1 2 2 3 3 5 6 6 7 8 8 8 9 9 9 9 9
3 3 3 2 2 2 2 2 3 2 1 2 3 2 1 3 4 4 3 3 3 3 4 4 4 3 2 1 1 1 2 3 3 4 5 5 5 5 5 6 7 8 8
3 3 3 3 2 2 2 1 2 3 2 1 2 3 3 2 0 3 3 3 3 3 3 4 4 3 2 3 2 2 2 2 2 2 3 3 3 4 4 4 4 5 6
3 3 3 3 2 2 2 1 2 2 3 1 0 0 2 4 3 1 2 4 4 4 4 4 3 4 4 4 4 5 4 3 3 2 2 3 3 2 2 3 3 4 5
2 3 3 2 2 1 2 1 1 2 2 2 1 1 1 2 2 3 2 1 3 3 3 4 4 5 5 5 5 6 6 6 5 5 4 3 3 3 3 3 3 3 4
1 1 2 2 1 1 1 1 1 1 1 1 2 2 2 2 2 3 3 2 2 1 3 3 4 4 6 6 6 7 8 8 7 6 6 5 4 4 5 5 4 4 4
1 1 1 1 1 1 1 1 1 1 1 1 2 2 2 2 3 3 4 3 2 1 2 2 3 4 6 6 6 7 7 8 8 8 7 7 8 8 8 8 7 7 7
2 2 2 2 2 1 2 2 1 1 1 1 1 1 1 1 3 4 4 5 3 1 1 1 2 3 5 6 6 7 8 9 9 9 8 8 9 9 9 9 9 8 8
3 3 3 2 2 2 2 2 2 1 2 2 1 1 1 1 2 2 4 5 5 3 2 1 1 1 3 5 5 6 7 8 8 9 9 9 10 10 9 9 9 9 9
3 3 3 3 2 2 3 3 2 2 3 2 2 3 3 1 2 2 3 2 3 4 3 2 2 2 3 4 5 6 6 7 8 8 9 9 10 10 10 10 10 10 10
4 4 3 3 3 3 3 3 2 3 3 3 3 3 2 2 2 2 2 3 3 4 4 2 1 2 2 3 4 5 6 6 6 7 8 9 9 9 10 9 9 9 9
4 4 4 3 3 3 3 3 3 3 3 3 2 3 2 2 3 2 2 3 3 3 5 5 2 2 2 3 3 3 4 4 5 6 6 7 8 8 8 8 8 9 9
4 4 4 3 3 3 3 3 3 3 3 3 3 3 2 3 3 2 3 3 3 3 4 5 3 2 2 3 3 2 3 2 3 4 4 5 5 6 6 7 7 8 8
5 4 4 4 4 3 3 3 4 4 4 3 3 2 2 3 3 3 3 4 4 4 4 5 3 2 2 2 3 3 1 1 1 2 3 3 3 4 4 5 5 6 6
5 5 4 4 4 3 3 4 4 4 4 3 3 3 2 3 4 3 4 4 5 5 4 4 3 2 2 3 3 3 3 1 1 1 1 1 1 1 2 3 4 4 5
5 5 5 4 4 3 5 7 6 4 3 3 3 2 3 4 5 5 6 7 8 7 6 4 3 4 3 3 3 3 3 3 1 1 2 1 2 1 3 4 5 5 5
5 5 5 5 4 4 6 7 7 5 4 3 3 2 2 3 4 4 5 5 4 5 7 6 5 5 5 5 5 4 3 3 3 3 3 1 1 2 5 6 7 7 7
5 5 5 5 5 4 6 7 7 5 4 3 3 3 3 2 2 3 4 4 3 2 3 4 5 5 5 6 6 6 5 3 1 1 4 2 2 2 3 6 8 10 9
5 4 5 5 5 4 6 7 6 4 3 2 2 3 3 3 3 5 5 4 2 1 1 3 5 5 6 8 8 5 4 3 1 2 2 3 2 1 2 3 8 10 11
5 4 4 4 5 4 5 6 7 4 3 2 2 2 3 3 4 6 5 5 3 2 1 1 2 2 3 4 7 6 6 4 3 2 3 3 2 2 1 3 4 7 9
Wind_Direction
149 166 181 190 203 198 196 197 203 193 179 194 179 143 146 151 163 169 179 184 184 188 189 191 195 197 197 197 199 199 201 202 204 207 208 209 209 208 209 211 212 211 211
152 155 165 181 198 196 200 186 182 161 145 126 117 116 135 153 157 165 171 178 185 190 194 199 200 200 200 202 204 204 204 207 208 209 211 214 215 215 216 215 215 215 215
157 158 149 154 194 175 156 134 128 113 121 126 131 143 141 142 153 166 169 175 186 193 192 195 199 204 205 208 209 209 208 210 212 211 213 216 218 219 218 218 218 218 219
149 145 150 177 175 137 116 117 120 111 118 122 119 132 119 125 143 156 165 172 178 190 199 199 200 201 206 208 211 211 210 211 214 215 215 216 218 220 221 222 221 222 222
142 140 148 162 128 105 108 126 116 138 140 131 118 101 102 129 135 151 154 164 168 171 174 184 183 187 202 210 213 213 212 211 211 213 215 216 218 220 221 223 225 225 223
138 127 124 114 117 108 89 97 113 118 141 140 98 67 50 87 119 141 153 134 135 141 140 145 171 200 205 209 207 209 212 210 211 213 216 217 219 222 223 224 226 228 227
137 124 116 107 107 122 139 125 121 108 96 109 90 56 31 42 61 72 94 97 103 121 124 116 112 106 260 233 203 200 208 211 210 202 201 207 212 215 218 221 224 224 224
136 134 125 129 116 106 87 108 119 119 147 137 130 109 51 25 32 44 68 90 90 94 93 97 97 87 58 43 43 121 208 218 202 193 191 192 199 204 208 212 218 217 218
132 118 117 113 111 117 126 136 137 143 165 221 158 145 149 181 40 25 46 63 71 77 73 84 81 77 76 55 41 51 74 108 149 172 178 179 186 189 186 188 188 199 199
117 116 114 115 111 110 119 140 135 147 149 180 290 147 161 156 150 115 35 42 55 62 59 71 62 61 64 61 60 59 70 79 80 101 147 158 151 154 171 174 182 183 183
98 116 115 113 116 121 134 138 131 138 151 169 181 154 96 94 115 144 143 66 52 49 61 64 68 66 61 63 67 65 69 73 74 74 84 101 114 119 116 118 123 137 149
77 95 101 98 112 133 143 151 146 150 171 174 176 164 161 154 160 146 150 141 109 53 54 57 62 64 60 59 70 71 69 68 69 72 75 81 93 103 99 95 97 102 114
137 162 129 124 148 162 123 115 127 140 158 157 169 170 175 181 165 151 144 148 138 119 62 43 48 69 66 60 62 72 75 70 67 71 75 80 83 86 87 84 84 87 88
177 170 147 145 135 111 101 97 104 113 89 101 120 136 146 166 151 153 152 147 137 115 81 79 36 69 81 77 72 74 75 75 77 77 80 84 86 85 85 84 81 81 79
155 139 134 125 111 95 97 99 82 68 78 76 75 82 93 106 126 133 142 152 151 159 180 183 120 101 113 100 95 89 86 83 84 83 82 85 87 87 87 86 84 80 77
129 123 116 113 107 96 98 100 89 75 81 65 75 73 67 79 103 113 137 140 138 149 159 177 174 179 148 124 110 98 96 89 87 90 91 92 93 94 90 87 84 82 80
141 139 131 116 108 104 103 101 96 89 87 69 64 79 72 83 99 107 114 118 119 124 136 138 118 142 136 134 121 108 97 94 94 95 97 97 96 93 89 87 88 86 84
147 143 135 122 116 106 100 102 102 91 93 91 84 86 79 92 88 103 112 119 129 131 142 148 149 149 151 159 146 131 120 107 104 97 100 99 99 97 94 93 94 95 91
144 138 132 130 122 112 102 100 102 93 89 93 96 98 97 102 95 100 117 123 126 123 129 146 156 151 139 146 122 122 121 111 119 117 110 108 109 107 103 101 99 99 97
143 139 133 128 125 117 108 104 101 95 87 76 77 88 96 115 133 132 126 125 126 120 123 136 136 138 140 142 129 132 114 76 141 135 127 128 128 123 121 120 116 113 110
149 145 133 125 124 122 124 124 120 113 104 88 68 67 82 96 111 126 139 141 137 136 137 140 151 142 144 148 169 170 159 151 354 176 114 170 153 158 174 166 157 152 143
147 138 139 139 139 141 134 135 132 123 120 112 97 71 74 76 87 93 122 144 153 156 163 165 175 176 187 181 163 161 152 143 219 222 148 256 190 233 233 218 204 191 184
150 147 150 144 147 152 140 137 135 134 131 130 128 116 97 82 84 90 96 107 130 156 167 170 175 190 187 187 168 166 174 174 201 195 147 230 241 240 241 233 219 212 208
152 160 163 156 150 158 147 141 136 129 128 138 140 135 122 106 109 113 105 93 87 114 164 167 182 196 191 182 177 175 176 163 133 158 154 184 223 237 243 233 229 222 223
156 165 167 158 155 166 161 147 136 129 130 134 138 134 137 136 148 133 118 111 87 16 91 146 162 172 175 176 166 140 139 133 171 226 189 170 203 226 258 251 237 229 229
156 149 147 156 160 172 177 160 147 143 142 141 132 144 157 155 151 145 143 144 150 198 138 104 102 118 151 173 177 176 172 168 177 222 213 170 176 155 255 265 236 231 232
Height
1548 1548 1549 1550 1550 1551 1552 1552 1553 1553 1553 1554 1554 1555 1555 1555 1556 1556 1557 1558 1558 1558 1559 1559 1559 1560 1560 1561 1561 1562 1562 1563 1563 1564 1565 1565 1566 1566 1567 1568 1568 1569 1570
1549 1549 1549 1550 1550 1551 1552 1552 1553 1553 1553 1553 1554 1554 1555 1555 1556 1556 1556 1557 1557 1558 1558 1558 1558 1558 1559 1559 1559 1560 1560 1561 1561 1562 1562 1563 1564 1564 1565 1566 1567 1567 1568
1549 1549 1549 1550 1551 1551 1552 1552 1552 1552 1553 1553 1554 1554 1555 1555 1555 1555 1555 1556 1556 1557 1557 1557 1557 1557 1557 1557 1557 1558 1558 1559 1559 1560 1560 1561 1561 1562 1563 1563 1564 1565 1565
1549 1549 1549 1550 1550 1551 1551 1552 1552 1552 1552 1553 1553 1554 1554 1554 1554 1554 1555 1555 1555 1556 1556 1556 1556 1556 1555 1555 1555 1556 1556 1557 1557 1557 1558 1558 1559 1559 1560 1560 1561 1561 1562
1549 1549 1549 1550 1550 1550 1551 1551 1551 1552 1552 1552 1552 1553 1553 1553 1553 1553 1554 1554 1555 1555 1555 1555 1555 1554 1554 1553 1553 1553 1553 1554 1554 1555 1555 1556 1556 1556 1557 1557 1558 1558 1559
1549 1549 1549 1549 1550 1550 1550 1550 1551 1551 1551 1552 1551 1552 1552 1552 1553 1553 1553 1553 1553 1553 1553 1553 1553 1553 1552 1552 1551 1551 1551 1551 1552 1552 1552 1552 1553 1553 1554 1554 1554 1555 1555
1549 1549 1549 1549 1549 1549 1550 1550 1550 1551 1551 1551 1551 1551 1552 1552 1552 1552 1552 1553 1552 1552 1552 1552 1551 1551 1551 1550 1550 1549 1549 1549 1550 1550 1550 1550 1550 1550 1550 1551 1551 1551 1552
1549 1549 1549 1549 1549 1549 1549 1549 1549 1550 1550 1550 1550 1550 1551 1553 1552 1552 1552 1552 1552 1551 1551 1551 1550 1550 1549 1549 1548 1548 1548 1547 1547 1548 1548 1548 1548 1548 1547 1547 1548 1548 1548
1549 1549 1549 1549 1549 1548 1548 1548 1549 1549 1549 1549 1550 1550 1550 1550 1551 1552 1551 1551 1551 1550 1550 1550 1549 1548 1548 1547 1547 1547 1546 1546 1545 1545 1545 1545 1545 1545 1545 1544 1544 1545 1545
1549 1549 1549 1548 1548 1548 1548 1548 1548 1548 1548 1548 1548 1549 1549 1549 1549 1550 1551 1550 1550 1550 1550 1549 1549 1548 1547 1546 1546 1545 1545 1544 1544 1543 1543 1543 1543 1543 1542 1542 1542 1542 1542
1548 1548 1548 1548 1547 1547 1547 1547 1547 1547 1547 1547 1547 1547 1547 1547 1547 1548 1549 1550 1550 1549 1549 1549 1548 1547 1547 1546 1545 1545 1544 1543 1542 1542 1541 1541 1540 1540 1540 1540 1540 1540 1540
1548 1548 1548 1547 1547 1546 1546 1546 1546 1546 1545 1545 1545 1545 1545 1545 1545 1546 1546 1547 1548 1549 1549 1549 1548 1547 1547 1546 1545 1544 1543 1543 1542 1541 1540 1540 1539 1539 1539 1539 1539 1539 1539
1547 1547 1547 1547 1546 1546 1545 1545 1545 1545 1545 1544 1544 1544 1544 1544 1544 1545 1545 1546 1546 1548 1548 1548 1548 1547 1547 1546 1545 1544 1543 1542 1541 1541 1540 1539 1538 1538 1538 1538 1538 1538 1538
1546 1546 1546 1546 1545 1545 1545 1545 1544 1544 1544 1543 1543 1543 1543 1543 1543 1543 1543 1544 1545 1546 1547 1547 1547 1547 1547 1546 1545 1545 1544 1543 1542 1541 1540 1539 1539 1538 1538 1538 1538 1538 1538
1546 1546 1545 1545 1545 1545 1544 1544 1544 1543 1543 1542 1542 1541 1541 1541 1541 1542 1542 1542 1543 1543 1545 1546 1546 1546 1546 1546 1545 1545 1544 1543 1542 1541 1540 1540 1539 1538 1538 1538 1538 1538 1538
1545 1545 1545 1545 1544 1544 1544 1543 1543 1542 1542 1541 1541 1541 1540 1540 1540 1540 1541 1541 1542 1542 1542 1544 1545 1545 1546 1546 1546 1545 1544 1544 1543 1543 1542 1541 1540 1539 1539 1539 1538 1538 1538
1544 1544 1544 1544 1544 1543 1543 1542 1542 1541 1541 1541 1540 1540 1539 1539 1539 1539 1539 1540 1540 1541 1541 1542 1544 1545 1545 1545 1546 1546 1545 1545 1544 1544 1543 1543 1542 1541 1540 1539 1539 1538 1538
1543 1543 1543 1543 1543 1542 1542 1542 1541 1541 1540 1540 1539 1539 1539 1538 1538 1538 1538 1538 1539 1540 1540 1540 1542 1543 1544 1545 1546 1546 1546 1546 1545 1545 1544 1544 1543 1542 1541 1540 1540 1539 1538
1542 1542 1542 1542 1542 1542 1542 1541 1540 1540 1540 1539 1539 1538 1538 1538 1538 1537 1538 1538 1538 1539 1540 1540 1541 1542 1543 1545 1545 1546 1546 1546 1546 1545 1545 1544 1544 1543 1542 1541 1541 1540 1539
1541 1541 1541 1541 1541 1541 1541 1541 1540 1540 1539 1539 1538 1538 1537 1537 1537 1537 1537 1537 1538 1539 1539 1539 1540 1541 1542 1543 1544 1545 1545 1545 1546 1546 1545 1545 1544 1544 1543 1542 1541 1541 1540
1539 1540 1540 1540 1540 1540 1540 1540 1540 1539 1539 1538 1538 1537 1537 1537 1537 1537 1537 1537 1537 1538 1538 1539 1540 1540 1541 1542 1542 1543 1544 1544 1545 1545 1545 1545 1545 1544 1543 1543 1542 1541 1541
1537 1537 1538 1538 1539 1539 1539 1539 1539 1538 1538 1538 1537 1537 1537 1536 1536 1536 1536 1537 1537 1537 1537 1538 1538 1539 1539 1540 1541 1542 1543 1543 1543 1545 1545 1545 1545 1544 1544 1543 1543 1542 1541
1535 1535 1536 1536 1537 1537 1537 1538 1537 1537 1537 1537 1537 1537 1536 1536 1536 1536 1536 1536 1536 1537 1537 1537 1537 1538 1538 1539 1540 1541 1542 1542 1542 1543 1544 1544 1544 1544 1544 1543 1543 1542 1542
1532 1533 1533 1534 1535 1536 1536 1536 1536 1536 1536 1536 1536 1536 1536 1536 1536 1536 1536 1535 1535 1535 1536 1536 1537 1537 1538 1538 1539 1540 1541 1541 1541 1542 1543 1543 1543 1542 1543 1542 1542 1542 1542
1530 1530 1531 1532 1533 1534 1535 1535 1535 1535 1535 1535 1535 1535 1535 1535 1535 1535 1535 1534 1534 1534 1535 1535 1535 1536 1536 1537 1538 1538 1539 1539 1539 1540 1541 1541 1541 1541 1541 1541 1541 1541 1541
1528 1528 1529 1531 1532 1533 1534 1534 1534 1534 1533 1533 1533 1534 1534 1534 1534 1534 1534 1533 1533 1533 1534 1534 1534 1534 1535 1535 1536 1537 1537 1538 1538 1538 1539 1539 1539 1539 1539 1539 1539 1539 1539